FW2795 Weather Reports


Display with metric or nautical units.
time (UTC)temp
F
wind
direction
speed
MPH
gust
MPH
rain 1hr
in
rain 24hr
in
rain mn
in
humidity
%
barometer
mb
20260509135600 72 147 2.0 3.0 0.00 0.00 0.00 31 1016.8
20260509134550 71 121 4.0 9.0 0.00 0.00 0.00 32 1016.8
20260509133549 75 66 3.0 4.0 0.00 0.00 0.00 32 1016.9
20260509133049 75 102 3.0 5.0 0.00 0.00 0.00 32 1016.8
20260509132549 74 84 2.0 3.0 0.00 0.00 0.00 32 1017.0
20260509131603 76 86 6.0 11.0 0.00 0.00 0.00 31 1017.0
20260509131048 75 77 2.0 3.0 0.00 0.00 0.00 31 1016.9
20260509130547 75 96 2.0 4.0 0.00 0.00 0.00 32 1016.9
20260509125602 73 306 3.0 4.0 0.00 0.00 0.00 33 1017.0
20260509125101 72 90 2.0 6.0 0.00 0.00 0.00 33 1016.9
20260509124551 0 0.0 0.0 0.00 0.00 0.00 1017.1
20260509123551 0 0.0 0.0 0.00 0.00 0.00 1017.2
20260509123050 0 0.0 0.0 0.00 0.00 0.00 1017.4
20260509122550 0 0.0 0.0 0.00 0.00 0.00 1017.3
20260509121550 0 0.0 0.0 0.00 0.00 0.00 1017.5
20260509121049 0 0.0 0.0 0.00 0.00 0.00 1017.4
20260509120549 0 0.0 0.0 0.00 0.00 0.00 1017.4
20260509115603 0 0.0 0.0 0.00 0.00 0.00 1017.6
20260509115053 0 0.0 0.0 0.00 0.00 0.00 1017.5
20260509114552 0 0.0 0.0 0.00 0.00 0.00 1017.5
20260509113552 0 0.0 0.0 0.00 0.00 0.00 1017.9
20260509113052 0 0.0 0.0 0.00 0.00 0.00 1017.8
20260509112606 0 0.0 0.0 0.00 0.00 0.00 1017.9
20260509111556 0 0.0 0.0 0.00 0.00 0.00 1017.9
20260509111056 0 0.0 0.0 0.00 0.00 0.00 1018.1
20260509110555 0 0.0 0.0 0.00 0.00 0.00 1018.1
20260509105555 0 0.0 0.0 0.00 0.00 0.00 1018.1
20260509105054 0 0.0 0.0 0.00 0.00 0.00 1018.3
20260509104554 0 315 0.0 0.0 0.00 0.00 0.00 1018.3
20260509103553 0 217 0.0 0.0 0.00 0.00 0.00 1018.2
20260509103052 0 235 0.0 0.0 0.00 0.00 0.00 1018.4
20260509102552 0 292 0.0 0.0 0.00 0.00 0.00 1018.5
20260509101551 69 134 1.0 2.0 0.00 0.00 0.00 46 1018.4
20260509101106 69 139 3.0 5.0 0.00 0.00 0.00 46 1018.4
20260509100555 68 101 2.0 3.0 0.00 0.00 0.00 47 1018.4
20260509095555 69 134 4.0 8.0 0.00 0.00 0.00 47 1018.4
20260509095055 69 150 4.0 6.0 0.00 0.00 0.00 45 1018.5
20260509094544 70 123 2.0 2.0 0.00 0.00 0.00 46 1018.4
20260509093559 68 106 2.0 5.0 0.00 0.00 0.00 50 1018.6
20260509093044 68 110 2.0 4.0 0.00 0.00 0.00 51 1018.6
20260509092544 67 84 4.0 4.0 0.00 0.00 0.00 51 1018.7
20260509091558 68 114 2.0 4.0 0.00 0.00 0.00 51 1018.6
20260509090558 66 50 2.0 4.0 0.00 0.00 0.00 54 1018.6
20260509085557 64 49 3.0 7.0 0.00 0.00 0.00 55 1018.8
20260509085056 65 32 4.0 8.0 0.00 0.00 0.00 55 1018.8
20260509084556 65 13 4.0 6.0 0.00 0.00 0.00 54 1018.6
20260509083556 65 100 4.0 5.0 0.00 0.00 0.00 56 1018.7
20260509083055 64 37 2.0 4.0 0.00 0.00 0.00 56 1018.9
20260509082555 64 71 2.0 4.0 0.00 0.00 0.00 58 1018.9
20260509081609 63 72 2.0 4.0 0.00 0.00 0.00 58 1018.9
20260509081044 64 54 2.0 4.0 0.00 0.00 0.00 58 1018.9
20260509080544 64 58 1.0 2.0 0.00 0.00 0.00 58 1018.8
20260509075558 65 148 1.0 2.0 0.00 0.00 0.00 59 1018.9
20260509075058 64 157 1.0 2.0 0.00 0.00 0.00 60 1019.0
20260509074557 63 117 2.0 4.0 0.00 0.00 0.00 60 1018.9
20260509073612 61 162 2.0 4.0 0.00 0.00 0.00 63 1019.1
20260509073046 61 120 1.0 2.0 0.00 0.00 0.00 64 1019.0
20260509072546 61 98 1.0 2.0 0.00 0.00 0.00 64 1018.9
20260509071601 62 79 2.0 4.0 0.00 0.00 0.00 64 1018.8
20260509071100 61 45 1.0 2.0 0.00 0.00 0.00 65 1018.8
20260509070605 61 90 0.0 2.0 0.00 0.00 0.00 66 1018.8
20260509065554 60 90 0.0 1.0 0.00 0.00 0.00 72 1018.8
20260509065054 59 90 0.0 1.0 0.00 0.00 0.00 74 1018.7
20260509064543 58 90 0.0 2.0 0.00 0.00 0.00 80 1018.5
20260509063558 55 45 0.0 2.0 0.00 0.00 0.00 84 1018.5
20260509063058 54 65 0.0 1.0 0.00 0.00 0.00 86 1018.5
20260509062557 54 65 0.0 1.0 0.00 0.00 0.00 88 1018.6
20260509061557 53 70 0.0 1.0 0.00 0.00 0.00 91 1018.5
20260509061056 53 70 1.0 2.0 0.00 0.00 0.00 92 1018.5
20260509060556 52 90 1.0 2.0 0.00 0.00 0.00 92 1018.6
20260509055611 51 90 0.0 2.0 0.00 0.00 0.00 93 1018.5
20260509055046 50 90 1.0 2.0 0.00 0.00 0.00 93 1018.3
20260509054545 49 180 0.0 0.0 0.00 0.00 0.00 94 1018.4
20260509053600 48 180 0.0 0.0 0.00 0.00 0.00 94 1018.4
20260509053044 48 180 0.0 0.0 0.00 0.00 0.00 95 1018.4
20260509052544 48 180 0.0 0.0 0.00 0.00 0.00 95 1018.6
20260509051559 47 180 0.0 0.0 0.00 0.00 0.00 95 1018.5
20260509051058 47 180 0.0 0.0 0.00 0.00 0.00 95 1018.4
20260509050557 46 180 0.0 0.0 0.00 0.00 0.00 94 1018.4
20260509045602 45 180 0.0 0.0 0.00 0.00 0.00 94 1018.4
20260509045046 45 180 0.0 0.0 0.00 0.00 0.00 94 1018.3
20260509044545 45 180 0.0 0.0 0.00 0.00 0.00 94 1018.2
20260509043600 45 180 0.0 0.0 0.00 0.00 0.00 93 1018.3
20260509043044 44 180 0.0 0.0 0.00 0.00 0.00 94 1018.3
20260509042544 44 180 0.0 0.0 0.00 0.00 0.00 94 1018.2
20260509041558 44 180 0.0 0.0 0.00 0.00 0.00 93 1018.3
20260509041058 44 180 0.0 0.0 0.00 0.00 0.00 93 1018.3
20260509040557 44 180 0.0 0.0 0.00 0.00 0.00 93 1018.4
20260509035557 45 180 0.0 0.0 0.00 0.00 0.00 92 1018.3
20260509035057 45 180 0.0 0.0 0.00 0.00 0.00 92 1018.4
20260509034557 45 180 0.0 0.0 0.00 0.00 0.00 92 1018.3
20260509033556 45 180 0.0 0.0 0.00 0.00 0.00 92 1018.4
20260509033056 45 180 0.0 0.0 0.00 0.00 0.00 91 1018.6
20260509032555 45 180 0.0 0.0 0.00 0.00 0.00 91 1018.6
20260509031555 45 180 0.0 0.0 0.00 0.00 0.00 90 1018.5
20260509031054 46 180 0.0 0.0 0.00 0.00 0.00 90 1018.4
20260509030554 46 180 0.0 0.0 0.00 0.00 0.00 90 1018.6
20260509025554 46 180 0.0 0.0 0.00 0.00 0.00 89 1018.5
20260509025053 46 180 0.0 0.0 0.00 0.00 0.00 89 1018.4
20260509024553 46 180 0.0 0.0 0.00 0.00 0.00 89 1018.4
20260509023552 47 180 0.0 0.0 0.00 0.00 0.00 89 1018.5
20260509023051 47 180 0.0 0.0 0.00 0.00 0.00 89 1018.4
20260509022551 47 180 0.0 0.0 0.00 0.00 0.00 89 1018.4
20260509021550 48 180 0.0 0.0 0.00 0.00 0.00 89 1018.5
20260509021050 48 180 0.0 0.0 0.00 0.00 0.00 89 1018.4
20260509020549 48 180 0.0 1.0 0.00 0.00 0.00 88 1018.3
20260509015604 47 180 0.0 1.0 0.00 0.00 0.00 86 1018.3
20260509015054 47 180 0.0 1.0 0.00 0.00 0.00 86 1018.5
20260509014608 48 180 0.0 0.0 0.00 0.00 0.00 85 1018.6
20260509013557 48 180 0.0 0.0 0.00 0.00 0.00 83 1018.7
20260509012556 49 360 0.0 0.0 0.00 0.00 0.00 84 1018.6
20260509011556 50 360 0.0 1.0 0.00 0.00 0.00 84 1018.5
20260509011056 50 360 0.0 0.0 0.00 0.00 0.00 84 1018.6
20260509010555 50 360 1.0 2.0 0.00 0.00 0.00 83 1018.5
20260509005555 50 180 0.0 0.0 0.00 0.00 0.00 82 1018.6
20260509004554 50 180 0.0 0.0 0.00 0.00 0.00 81 1018.9
20260509003554 51 135 0.0 0.0 0.00 0.00 0.00 80 1018.8
20260509003054 51 115 0.0 0.0 0.00 0.00 0.00 80 1018.8
20260509002608 51 97 0.0 0.0 0.00 0.00 0.00 79 1018.8
20260509001558 51 96 0.0 1.0 0.00 0.00 0.00 78 1018.6
20260509001057 51 96 1.0 2.0 0.00 0.00 0.00 78 1018.8
20260509000547 52 75 1.0 2.0 0.00 0.00 0.00 78 1018.7
20260508235546 52 90 0.0 0.0 0.00 0.00 0.00 77 1018.7
20260508235101 52 90 1.0 2.0 0.00 0.00 0.00 76 1018.8
20260508234551 52 180 0.0 1.0 0.00 0.00 0.00 77 1018.9
20260508233550 52 225 0.0 0.0 0.00 0.00 0.00 75 1018.8
20260508232549 53 225 0.0 1.0 0.00 0.00 0.00 74 1018.9
20260508231549 53 203 0.0 1.0 0.00 0.00 0.00 74 1018.8
20260508231049 53 180 1.0 2.0 0.00 0.00 0.00 74 1018.9
20260508230548 53 100 0.0 1.0 0.00 0.00 0.00 74 1018.9
20260508225603 54 96 0.0 2.0 0.00 0.00 0.00 73 1018.8
20260508225047 54 95 1.0 3.0 0.00 0.00 0.00 73 1018.7
20260508224547 54 96 1.0 2.0 0.00 0.00 0.00 73 1018.8
20260508223601 54 90 0.0 1.0 0.00 0.00 0.00 73 1018.7
20260508223101 54 90 2.0 3.0 0.00 0.00 0.00 74 1018.6
20260508222551 54 90 2.0 3.0 0.00 0.00 0.00 73 1018.5
20260508221605 54 90 0.0 0.0 0.00 0.00 0.00 73 1018.6
20260508221054 54 90 0.0 0.0 0.00 0.00 0.00 73 1018.7
20260508220554 55 90 0.0 0.0 0.00 0.00 0.00 72 1018.7
20260508215554 55 68 0.0 2.0 0.00 0.00 0.00 72 1018.7
20260508215108 55 68 1.0 2.0 0.00 0.00 0.00 72 1018.4
20260508214558 55 45 0.0 1.0 0.00 0.00 0.00 73 1018.5
20260508213558 56 45 1.0 2.0 0.00 0.00 0.00 73 1018.5
20260508213058 56 45 1.0 2.0 0.00 0.00 0.00 73 1018.4
20260508212557 55 180 0.0 1.0 0.00 0.00 0.00 72 1018.4
20260508211557 56 180 0.0 0.0 0.00 0.00 0.00 72 1018.6
20260508211056 56 180 0.0 0.0 0.00 0.00 0.00 70 1018.3
20260508210556 57 180 0.0 1.0 0.00 0.00 0.00 69 1018.5
20260508205555 58 180 0.0 1.0 0.00 0.00 0.00 68 1018.4
20260508205055 58 180 0.0 1.0 0.00 0.00 0.00 67 1018.4
20260508204554 58 200 0.0 0.0 0.00 0.00 0.00 65 1018.3
20260508203609 59 158 0.0 0.0 0.00 0.00 0.00 63 1018.3
20260508203059 60 146 0.0 1.0 0.00 0.00 0.00 63 1018.2
20260508202558 60 167 1.0 2.0 0.00 0.00 0.00 62 1018.1
20260508201558 60 157 0.0 2.0 0.00 0.00 0.00 61 1018.0
20260508200558 61 204 1.0 2.0 0.00 0.00 0.00 60 1017.9
20260508195557 61 193 2.0 2.0 0.00 0.00 0.00 60 1018.0
20260508195057 61 76 1.0 2.0 0.00 0.00 0.00 59 1017.7
20260508194557 62 70 2.0 3.0 0.00 0.00 0.00 59 1017.7
20260508193556 62 76 0.0 2.0 0.00 0.00 0.00 57 1017.5
20260508192556 61 65 2.0 4.0 0.00 0.00 0.00 55 1017.4
20260508191555 61 180 0.0 0.0 0.00 0.00 0.00 56 1017.2
20260508191105 62 180 0.0 0.0 0.00 0.00 0.00 55 1017.3
20260508190610 62 180 0.0 0.0 0.00 0.00 0.00 55 1017.1
20260508185559 63 180 1.0 2.0 0.00 0.00 0.00 52 1017.0
20260508184559 63 162 1.0 2.0 0.00 0.00 0.00 51 1016.9
20260508183613 64 169 0.0 1.0 0.00 0.00 0.00 50 1016.8
20260508183103 64 184 0.0 2.0 0.00 0.00 0.00 51 1017.0
20260508182552 65 184 2.0 3.0 0.00 0.00 0.00 51 1016.7
20260508181552 66 218 2.0 3.0 0.00 0.00 0.00 49 1016.7
20260508180552 67 206 2.0 4.0 0.00 0.00 0.00 46 1016.6
20260508175552 68 202 1.0 2.0 0.00 0.00 0.00 45 1016.7
20260508175051 69 193 2.0 4.0 0.00 0.00 0.00 45 1016.7
20260508174551 69 205 2.0 3.0 0.00 0.00 0.00 44 1016.5
20260508173551 70 184 2.0 2.0 0.00 0.00 0.00 41 1016.6
20260508173050 70 159 1.0 2.0 0.00 0.00 0.00 43 1016.8
20260508172549 70 179 2.0 6.0 0.00 0.00 0.00 43 1016.7
20260508171604 69 209 1.0 3.0 0.00 0.00 0.00 44 1016.5
20260508171049 69 215 1.0 2.0 0.00 0.00 0.00 43 1016.6
20260508170548 69 218 2.0 4.0 0.00 0.00 0.00 44 1016.5
20260508165602 71 229 2.0 6.0 0.00 0.00 0.00 41 1016.5
20260508165047 71 226 3.0 7.0 0.00 0.00 0.00 42 1016.6
20260508164601 71 249 2.0 4.0 0.00 0.00 0.00 41 1016.4
20260508163551 70 152 2.0 5.0 0.00 0.00 0.00 42 1016.5
20260508163050 69 131 2.0 2.0 0.00 0.00 0.00 46 1016.3
20260508162550 69 130 2.0 3.0 0.00 0.00 0.00 44 1016.5
20260508161605 71 112 2.0 3.0 0.00 0.00 0.00 42 1016.4
20260508161049 70 135 2.0 4.0 0.00 0.00 0.00 43 1016.3
20260508160549 69 134 2.0 2.0 0.00 0.00 0.00 43 1016.4
20260508155603 72 127 2.0 4.0 0.00 0.00 0.00 38 1016.6
20260508155053 72 6 2.0 4.0 0.00 0.00 0.00 41 1016.6
20260508154552 71 225 2.0 3.0 0.00 0.00 0.00 42 1016.5
20260508153552 70 236 2.0 3.0 0.00 0.00 0.00 43 1016.4
20260508153051 71 235 2.0 4.0 0.00 0.00 0.00 41 1016.5
20260508152551 71 233 4.0 5.0 0.00 0.00 0.00 45 1016.5
20260508151550 69 167 2.0 4.0 0.00 0.00 0.00 47 1016.5
20260508151050 68 165 2.0 2.0 0.00 0.00 0.00 50 1016.4
20260508150550 67 159 2.0 4.0 0.00 0.00 0.00 52 1016.4
20260508145604 66 146 3.0 7.0 0.00 0.00 0.00 51 1016.6
20260508145049 67 166 2.0 4.0 0.00 0.00 0.00 50 1016.6
20260508144549 68 150 3.0 7.0 0.00 0.00 0.00 49 1016.6
20260508143604 67 130 2.0 4.0 0.00 0.00 0.00 51 1016.7
20260508143053 67 107 1.0 2.0 0.00 0.00 0.00 51 1016.7
20260508142553 68 102 4.0 7.0 0.00 0.00 0.00 51 1016.6
20260508141553 68 129 2.0 2.0 0.00 0.00 0.00 50 1016.7
20260508141052 69 119 2.0 4.0 0.00 0.00 0.00 47 1016.7
20260508140551 69 107 3.0 7.0 0.00 0.00 0.00 47 1016.7